Regional Weather Roundup
Issued by NWS Upton, NY

Current Version | Previous Version | Graphics & Text | Print | Product List | Glossary Off
Versions: 1 2 3 4 5 6 7 8 9 10 11 12 13 14 15 16 17 18 19 20 21 22 23 24 25 26 27 28 29 30 31 32 33 34 35 36 37 38 39 40 41 42 43 44 45 46 47 48 49 50

000
ASUS41 KOKX 200305
RWROKX

REGIONAL WEATHER ROUNDUP
NATIONAL WEATHER SERVICE NEW YORK NY
1100 PM EDT SUN OCT 19 2014

NOTE: "FAIR" INDICATES FEW OR NO CLOUDS BELOW 12,000 FEET WITH NO
SIGNIFICANT WEATHER AND/OR OBSTRUCTIONS TO VISIBILITY.

NYZ071-072-176-178-NJZ106-104-200400-
NEW YORK CITY METRO AREA


CITY           SKY/WX    TMP DP  RH WIND       PRES   REMARKS
CENTRAL PARK   CLEAR     45  26  47 VRB5      30.09R
LAGUARDIA APRT PTCLDY    46  30  53 NW15      30.07R
KENNEDY INTL   MOCLDY    45  26  47 NW10      30.07R
NEWARK/LIBERTY MOCLDY    44  27  51 NW9       30.08R
BRNX BOT. GARD   N/A    N/A N/A N/A NW7       30.06F
TETERBORO      PTCLDY    42  26  53 NW6       30.07R
$$

NYZ177-179-078>081-200400-
LONG ISLAND NEW YORK

CITY           SKY/WX    TMP DP  RH WIND       PRES   REMARKS
FARMINGDALE    CLEAR     44  28  53 NW7       30.06R
ISLIP          PTCLDY    44  28  53 NW9       30.03R
SHIRLEY        NOT AVBL
WESTHAMPTON    CLEAR     44  27  51 NW8       30.04R
MONTAUK POINT    N/A     46  30  53 NW16G26   30.01R
$$

NYZ052-065-067-200400-
HUDSON VALLEY

CITY           SKY/WX    TMP DP  RH WIND       PRES   REMARKS
WHITE PLAINS   CLEAR     40  27  59 NW8       30.03S WCI  34
NEWBURGH       CLEAR     39  28  65 N6        30.06S WCI  35
MONTGOMERY     PTCLDY    33  28  81 CALM      30.05S
POUGHKEEPSIE   CLEAR     36  28  73 CALM      30.06R
ALBANY         MOCLDY    36  27  69 W3        30.04S
$$

NJZ001-105-106-008-010-013-015-019>022-104-200400-
NEW JERSEY

CITY           SKY/WX    TMP DP  RH WIND       PRES   REMARKS
NEWARK/LIBERTY MOCLDY    44  27  51 NW9       30.08R
TETERBORO      PTCLDY    42  26  53 NW6       30.07R
CALDWELL       PTCLDY    41  26  55 CALM      30.08R
MORRISTOWN     PTCLDY    45  27  49 CALM      30.08S
SOMERVILLE     PTCLDY    40  29  64 N5        30.07R
SUSSEX         MOCLDY    39  29  67 CALM      30.07R
ANDOVER          N/A     38  29  70 CALM      30.08R
TRENTON        PTCLDY    41  28  60 N5        30.07R
MILLVILLE      PTCLDY    36  34  92 CALM      30.09R
ATLANTIC CITY  PTCLDY    37  31  78 NE5       30.09R WCI  33
WRIGHTSTOWN    PTCLDY    40  30  67 NW3       30.06R
TOMS RIVER     PTCLDY    34  28  80 CALM      30.09R
BELMAR         CLEAR     41  27  56 CALM      30.07R
$$

PAZ047>061-062-071-200400-
EASTERN PENNSYLVANIA

CITY           SKY/WX    TMP DP  RH WIND       PRES   REMARKS
PHILADELPHIA   PTCLDY    48  29  47 CALM      30.09R
ALLENTOWN      MOCLDY    40  28  62 CALM      30.08S
SCRANTON       MOCLDY    36  28  73 SE5       30.07R WCI  32
$$

CTZ002-004>006-009-010-012-RIZ004-006-007-MAZ004-011-015-200400-
SOUTHERN NEW ENGLAND
 IN CT

CITY           SKY/WX    TMP DP  RH WIND       PRES   REMARKS
BRADLEY INTL   CLEAR     40  26  57 NW7       30.00S
HARTFORD       CLEAR     42  25  50 VRB6      30.02S
DANBURY        CLEAR     39  25  57 CALM      30.04S
WTRBRY/OXFORD  CLEAR     37  21  52 NW6       30.03S WCI  33
BRIDGEPORT     CLEAR     42  29  59 NW6       30.05R
MERIDEN        CLEAR     40  25  55 NW5       30.04R
NEW HAVEN      CLEAR     45  26  47 NW8       30.04R
CHESTER        FAIR      39  27  60 NW9       30.01R WCI  33
GROTON         CLEAR     41  28  60 NW13      30.00R
WILLIMANTIC    CLEAR     41  26  55 W5        30.01R

 IN RI

CITY           SKY/WX    TMP DP  RH WIND       PRES   REMARKS
PROVIDENCE     PTCLDY    42  28  57 NW12G18   29.98R
BLOCK ISLAND   CLEAR     45  27  49 NW15G26   29.98R
WESTERLY       CLEAR     42  26  53 VRB5      30.01R

 IN MA

CITY           SKY/WX    TMP DP  RH WIND       PRES   REMARKS
BOSTON         CLOUDY    45  30  55 NW13G21   29.94R
WORCESTER      PTCLDY    37  24  59 NW9G20    29.96R WCI  30
WESTFIELD      PTCLDY    37  27  67 CALM      30.00S
PROVINCETOWN   MOCLDY    46  30  53 NW22G31   29.92R
NANTUCKET      CLOUDY    49  26  41 NW14G25   29.92R
$$

ANZ330-335-338-340-345-350-353-355-200400-
COASTAL MARINE OBSERVATIONS


STATION/POSITION TIME  SKY/WX   TEMP    WIND        PRES    VSBY  WAVE
                                AIR SEA DIR/SP/G                  HT/PER
                 (UTC)          (F)     (DEG/KT/KT) (MB)    (MI)  (FT/S)
NY HARB ENTRANCE NOT AVBL
4S FIRE IS       0300               64                N/A           3/13
20S FIRE ISLAND  0300            49 64  320/ 17/ 23 1017.2          4/ 5
23SW MTP         0300                                 N/A           5/ 5
HUDSON CANYON    0300            52 66  320/ 19/ 25 1016.3          7/ 7
EXECUTION ROCKS  0300            47 64  310/ 14/ 17   N/A
WESTERN LI SOUND 0300            46     330/ 10/ 14   N/A           1/ 2
CENTRAL LI SOUND 0200            47 65  310/ 19/ 25   N/A           3/ 4
EASTERN LI SOUND 0200            47 63  310/ 19/ 25   N/A
ROBBINS REEF     0200                   320/ 11/ 15 1017.0
$$


>>>>>>>>>>>>>>>>>>>>>>>>>>>> KEY <<<<<<<<<<<<<<<<<<<<<<<<<<<
>                                                          <
>     SKY/WX - SKY CONDITION/PRESENT WEATHER               <
>     TMP    - TEMPERATURE IN FAHRENHEIT                   <
>     DP     - DEWPOINT IN FAHRENHEIT                      <
>     RH     - RELATIVE HUMIDITY IN PERCENT                <
>     WIND   - DIRECTION AND SPEED IN MPH                  <
>     PRES   - MEAN SEA LEVEL PRESSURE IN INCHES OF HG     <
>     WCI    - WIND CHILL INDEX                            <
>     VSB    - VISIBILITY IN MILES                         <
>     HX     - HEAT INDEX                                  <
>     TC     - TEMPERATURE IN CELSIUS                      <
>     VRB    - VARIABLE WIND DIRECTION                     <
>                                                          <
>>>>>>>>>>>>>>>>>>>>>>>>>>>> KEY <<<<<<<<<<<<<<<<<<<<<<<<<<<





USA.gov is the U.S. government's official web portal to all federal, state and local government web resources and services.